STARLINK-1372 (45543 NORAD) Tracking and Keplerian Element Data

This shows tracking and keplerian element data for the satellite.

Feedback or suggestion? Click here.




ElementValue
Catalog45543
NameSTARLINK-1372
Epoch Orbit175
Epoch Day188.91667824
Epoch Year2020
RAAN47.1724
Inclination52.9987
Eccentricity0.0001726
Argument of Perigee85.9373
Mean Anonmoly36.9309
Mean Motion15.05581819
Decay Rate-9.858E-05
L11 45543U 20025N 20188.91667824 -.00009858 00000-0 -65826-3 0 9994
L22 45543 52.9987 47.1724 0001726 85.9373 36.9309 15.05581819 1755

Live tracking and technical data element details for STARLINK-1372 (NORAD 45543). STARLINK-1372 can be tracked NOW for your location showing map with azimuth and elevation plus other details from your city location.

Track the satellite on the map from your city or location and see movement details for azimuth, elevation, latitude, longitude, range, height, and movement on the map or in text.







IsCatalogInMostPopularTable: catalog: 45543, numindb: 15
Update: records affected: 1



GetName: 45543 STARLINK-1372

Hit Count: updated at: Wed, 08 Jul 2020 05:31:34 GMT